Change the Weather History Date:

Friday, September 21, 2012

  Actual Average Record
Temperature  
Mean Temperature 62 °F -  
Max Temperature 71 °F 70 °F 82 °F (2005)
Min Temperature 54 °F 55 °F 50 °F (2008)
Degree Days  
Heating Degree Days 3    
Growing Degree Days 12 (Base 50)    
Moisture  
Dew Point 53 °F    
Average Humidity 76    
Maximum Humidity 93    
Minimum Humidity 52    
Precipitation  
Precipitation 0.00 in - - ()
Sea Level Pressure  
Sea Level Pressure 30.08 in    
Wind  
Wind Speed 5 mph (East)    
Max Wind Speed 10 mph    
Max Gust Speed -    
Visibility 10 miles    
Events      
Averages and records for this station are not official NWS values.
T = Trace of Precipitation, MM = Missing Value Source: NWS Daily Summary

Daily Weather History Graph

Daily Weather History Graph

Search for Another Location

Airport or City:

Trip Planner

Search our weather history database for the weather conditions in past years. The results will help you decide how hot, cold, wet, or windy it might be!

Date:

Astronomy

Sep. 21, 2012 Rise Set
Actual Time 6:40 AM EDT 6:51 PM EDT
Civil Twilight 6:13 AM EDT 7:19 PM EDT
Nautical Twilight 5:41 AM EDT 7:51 PM EDT
Astronomical Twilight 5:08 AM EDT 8:23 PM EDT
Moon 1:01 PM EDT (9/21) 10:47 PM EDT (9/21)
Length of Visible Light 13h 05m
Length of Day
12h 11m
Waxing Crescent, 37% of the Moon is Illuminated
Sep 21
Waxing Crescent
Sep 22
First Quarter
Sep 29
Full
Oct 8
Last Quarter
Oct 15
New

Hourly Weather History & Observations

Time (EDT) Temp. Dew Point Humidity Pressure Visibility Wind Dir Wind Speed Gust Speed Precip Events Conditions
12:53 AM 55.0 °F 51.1 °F 86% 30.12 in 10.0 mi NE 3.5 mph - N/A   Clear
1:53 AM 55.0 °F 50.0 °F 83% 30.13 in 10.0 mi NE 3.5 mph - N/A   Clear
2:53 AM 55.0 °F 51.1 °F 86% 30.12 in 10.0 mi ENE 3.5 mph - N/A   Clear
3:53 AM 55.0 °F 51.1 °F 86% 30.10 in 10.0 mi ENE 4.6 mph - N/A   Clear
4:53 AM 54.0 °F 51.1 °F 90% 30.10 in 10.0 mi NE 3.5 mph - N/A   Clear
5:53 AM 55.0 °F 52.0 °F 89% 30.11 in 10.0 mi NE 4.6 mph - N/A   Clear
6:53 AM 55.9 °F 52.0 °F 87% 30.11 in 10.0 mi ENE 4.6 mph - N/A   Clear
7:53 AM 57.9 °F 53.1 °F 84% 30.12 in 10.0 mi ENE 5.8 mph - N/A   Clear
8:53 AM 60.1 °F 53.1 °F 78% 30.12 in 10.0 mi ENE 5.8 mph - N/A   Clear
9:53 AM 62.1 °F 54.0 °F 75% 30.13 in 10.0 mi ENE 8.1 mph - N/A   Clear
10:53 AM 66.0 °F 52.0 °F 60% 30.12 in 10.0 mi East 5.8 mph - N/A   Clear
11:53 AM 68.0 °F 50.0 °F 52% 30.10 in 10.0 mi Variable 4.6 mph - N/A   Clear
12:53 PM 70.0 °F 53.1 °F 55% 30.09 in 10.0 mi SSE 9.2 mph - N/A   Clear
1:53 PM 70.0 °F 53.1 °F 55% 30.08 in 10.0 mi SSE 9.2 mph - N/A   Clear
2:53 PM 69.1 °F 53.1 °F 57% 30.06 in 10.0 mi SE 10.4 mph - N/A   Clear
3:53 PM 68.0 °F 53.1 °F 59% 30.06 in 10.0 mi SSE 10.4 mph - N/A   Clear
4:53 PM 66.9 °F 54.0 °F 63% 30.04 in 10.0 mi SSE 9.2 mph - N/A   Clear
5:53 PM 64.9 °F 55.0 °F 70% 30.04 in 10.0 mi SE 8.1 mph - N/A   Clear
6:53 PM 62.6 °F 55.4 °F 77% 30.05 in 10.0 mi ESE 3.5 mph - N/A   Clear
7:53 PM 62.1 °F 55.9 °F 80% 30.05 in 10.0 mi Calm Calm - N/A   Clear
8:53 PM 61.0 °F 55.9 °F 83% 30.05 in 10.0 mi Calm Calm - N/A   Clear
9:53 PM 60.1 °F 55.9 °F 86% 30.04 in 10.0 mi Calm Calm - N/A   Clear
10:53 PM 57.9 °F 55.9 °F 93% 30.04 in 10.0 mi Calm Calm - N/A   Clear
11:53 PM 57.9 °F 55.9 °F 93% 30.02 in 10.0 mi Calm Calm - N/A   Clear